Location: Rounton
(54.4000°N, 1.3500°W)
Time: 18:01:25
(UTC+00:00)

Transit 2A - Visible Passes

Search period start: 06 December 2021 00:00
Search period end: 16 December 2021 00:00
Orbit: 591 x 967 km, 66.7° (Epoch: 05 December)

Date Brightness Start Highest point End Pass type
(mag) Time Alt. Az. Time Alt. Az. Time Alt. Az.
06 Dec 8.7 02:51:16 17° NNE 02:51:16 17° NNE 02:52:59 10° NE visible
06 Dec 7.8 04:31:45 27° N 04:32:20 27° N 04:37:43 10° ENE visible
06 Dec 7.3 06:12:14 15° NW 06:17:09 43° NNE 06:23:10 10° ESE visible
07 Dec 9.1 02:18:02 12° NE 02:18:02 12° NE 02:18:37 10° NE visible
07 Dec 8.0 03:58:31 26° NNE 03:58:31 26° NNE 04:03:05 10° ENE visible
07 Dec 7.5 05:39:00 21° NNW 05:42:41 37° NNE 05:48:33 10° E visible
07 Dec 6.6 07:20:15 10° NW 07:26:42 90° NNE 07:32:58 10° SE visible
08 Dec 8.3 03:25:18 23° NNE 03:25:18 23° NNE 03:28:31 10° NE visible
08 Dec 7.7 05:05:47 26° NNW 05:08:10 34° NNE 05:13:54 10° E visible
08 Dec 6.6 06:46:16 11° NW 06:52:26 74° NE 06:58:41 10° SE visible
09 Dec 8.7 02:52:06 18° NE 02:52:06 18° NE 02:53:59 10° NE visible
09 Dec 7.7 04:32:35 29° N 04:33:38 31° NNE 04:39:12 10° ENE visible
09 Dec 6.8 06:13:04 17° NW 06:18:05 61° NE 06:24:18 10° ESE visible
10 Dec 9.1 02:18:54 12° NE 02:18:54 12° NE 02:19:30 10° NE visible
10 Dec 7.9 03:59:24 29° NNE 03:59:24 29° NNE 04:04:32 10° ENE visible
10 Dec 7.1 05:39:53 24° NNW 05:43:43 51° NE 05:49:50 10° ESE visible
10 Dec 6.7 07:20:56 10° NW 07:27:11 56° WSW 07:33:11 10° SSE visible
11 Dec 8.3 03:26:14 24° NNE 03:26:14 24° NNE 03:29:52 10° ENE visible
11 Dec 7.3 05:06:44 30° NNW 05:09:17 44° NNE 05:15:17 10° ESE visible
11 Dec 6.5 06:47:13 13° NW 06:53:01 71° SW 06:59:10 10° SSE visible
12 Dec 8.7 02:53:06 18° NE 02:53:06 18° NE 02:55:14 10° ENE visible
12 Dec 7.4 04:33:36 35° N 04:34:49 38° NNE 04:40:41 10° E visible
12 Dec 6.4 06:14:05 20° NW 06:18:48 87° SW 06:25:01 10° SE visible
13 Dec 9.1 02:20:01 12° NE 02:20:01 12° NE 02:20:39 10° NE visible
13 Dec 7.7 04:00:30 34° NNE 04:00:30 34° NNE 04:06:02 10° E visible
13 Dec 6.5 05:41:01 29° NW 05:44:31 77° NE 05:50:45 10° SE visible
13 Dec 7.3 07:21:51 10° NW 07:27:22 32° WSW 07:32:42 10° S visible
14 Dec 8.2 03:27:28 27° NE 03:27:28 27° NE 03:31:22 10° ENE visible
14 Dec 6.7 05:07:57 40° NNW 05:10:12 64° NE 05:16:23 10° ESE visible
14 Dec 7.0 06:48:27 15° NW 06:53:20 41° WSW 06:59:01 10° S visible
15 Dec 8.7 02:54:28 19° NE 02:54:28 19° NE 02:56:41 10° ENE visible
15 Dec 7.0 04:34:58 50° N 04:35:49 53° NE 04:41:56 10° ESE visible
15 Dec 6.6 06:15:29 24° NW 06:19:14 53° WSW 06:25:10 10° SSE visible
